When you browse on this site, cookies collect data to enhance your experience and personalize the content and advertising you see.
Visit our Privacy Policy to learn more. By continuing to use the site, you agree to this use of cookies and data.
  • In Netherlands
  • List of Countries
  • For 7 days
  • Water Temperature
  • Weather Map
  • Weather Widgets
  • user-avatar
    Login

    Hourly Weather Banfora

    Today, 4 June, Thursday

    Time Temperature Precipitation Wind Pressure Humidity
    00:00 +30°C° 0 mm 2 mps 733 mmHg 57%
    01:00 +30°C° 0 mm 2 mps 733 mmHg 62%
    02:00 +29°C° 0 mm 2 mps 732 mmHg 66%
    03:00 +29°C° 0 mm 2 mps 732 mmHg 70%
    04:00 +28°C° 0 mm 2 mps 732 mmHg 73%
    05:00 +28°C° 0 mm 2 mps 732 mmHg 76%
    06:00 +27°C° 0 mm 1 mps 733 mmHg 79%
    07:00 +29°C° 0 mm 2 mps 733 mmHg 74%
    08:00 +30°C° 0 mm 3 mps 733 mmHg 69%
    09:00 +31°C° 0 mm 3 mps 734 mmHg 64%
    10:00 +34°C° 0 mm 3 mps 733 mmHg 57%
    11:00 +36°C° 0 mm 3 mps 733 mmHg 50%
    12:00 +38°C° 0 mm 3 mps 733 mmHg 43%
    13:00 +39°C° 0 mm 2 mps 732 mmHg 38%
    14:00 +41°C° 0 mm 2 mps 731 mmHg 33%
    15:00 +42°C° 0 mm 1 mps 731 mmHg 28%
    16:00 +41°C° 0 mm 1 mps 731 mmHg 30%
    17:00 +39°C° 0 mm 1 mps 731 mmHg 33%
    18:00 +37°C° 0 mm 1 mps 731 mmHg 35%
    19:00 +36°C° 0 mm 1 mps 731 mmHg 38%
    20:00 +35°C° 0 mm 1 mps 732 mmHg 40%
    21:00 +34°C° 0 mm 2 mps 732 mmHg 42%
    22:00 +32°C° 0 mm 2 mps 733 mmHg 47%
    23:00 +32°C° 0 mm 2 mps 733 mmHg 52%

    Tomorrow, 5 June, Friday

    Time Temperature Precipitation Wind Pressure Humidity
    00:00 +31°C° 0 mm 2 mps 733 mmHg 57%
    01:00 +30°C° 0.9 mm 2 mps 733 mmHg 62%
    02:00 +29°C° 0.9 mm 2 mps 733 mmHg 68%
    03:00 +29°C° 0.9 mm 1 mps 733 mmHg 73%
    04:00 +27°C° 7.4 mm 3 mps 733 mmHg 79%
    05:00 +26°C° 7.4 mm 4 mps 733 mmHg 85%
    06:00 +23°C° 7.4 mm 6 mps 734 mmHg 91%
    07:00 +25°C° 0.3 mm 4 mps 734 mmHg 86%
    08:00 +26°C° 0.3 mm 3 mps 734 mmHg 81%
    09:00 +27°C° 0.3 mm 2 mps 735 mmHg 76%
    10:00 +28°C° 0 mm 2 mps 734 mmHg 76%
    11:00 +28°C° 0 mm 1 mps 734 mmHg 75%
    12:00 +29°C° 0 mm 1 mps 734 mmHg 75%
    13:00 +30°C° 0 mm 2 mps 733 mmHg 69%
    14:00 +32°C° 0 mm 2 mps 733 mmHg 64%
    15:00 +34°C° 0 mm 2 mps 732 mmHg 58%
    16:00 +32°C° 0 mm 2 mps 732 mmHg 60%
    17:00 +32°C° 0 mm 1 mps 732 mmHg 62%
    18:00 +31°C° 0 mm 1 mps 732 mmHg 64%
    19:00 +31°C° 0.1 mm 1 mps 733 mmHg 66%
    20:00 +30°C° 0.1 mm 1 mps 733 mmHg 68%
    21:00 +29°C° 0.1 mm 1 mps 734 mmHg 70%
    22:00 +29°C° 0.3 mm 1 mps 734 mmHg 72%
    23:00 +28°C° 0.3 mm 1 mps 734 mmHg 75%

    Day after tomorrow, 6 June, Saturday

    Time Temperature Precipitation Wind Pressure Humidity
    00:00 +28°C° 0.3 mm 1 mps 734 mmHg 77%
    01:00 +27°C° 0.4 mm 1 mps 734 mmHg 80%
    02:00 +27°C° 0.4 mm 1 mps 734 mmHg 84%
    03:00 +26°C° 0.4 mm 1 mps 733 mmHg 87%
    04:00 +26°C° 0 mm 1 mps 734 mmHg 88%
    05:00 +26°C° 0 mm 1 mps 734 mmHg 89%
    06:00 +26°C° 0 mm 2 mps 734 mmHg 91%
    07:00 +27°C° 0 mm 2 mps 734 mmHg 85%
    08:00 +29°C° 0 mm 2 mps 735 mmHg 80%
    09:00 +30°C° 0 mm 3 mps 735 mmHg 74%
    10:00 +33°C° 0 mm 3 mps 735 mmHg 67%
    11:00 +34°C° 0 mm 2 mps 735 mmHg 59%
    12:00 +36°C° 0 mm 2 mps 734 mmHg 52%
    13:00 +37°C° 0 mm 2 mps 734 mmHg 48%
    14:00 +37°C° 0 mm 1 mps 733 mmHg 44%
    15:00 +39°C° 0 mm 1 mps 733 mmHg 41%
    16:00 +37°C° 0 mm 1 mps 732 mmHg 44%
    17:00 +36°C° 0 mm 1 mps 732 mmHg 48%
    18:00 +33°C° 0 mm 0 mps 732 mmHg 51%
    19:00 +31°C° 0.1 mm 0 mps 732 mmHg 54%
    20:00 +32°C° 0.1 mm 1 mps 733 mmHg 56%
    21:00 +31°C° 0.1 mm 1 mps 733 mmHg 59%
    22:00 +30°C° 0.7 mm 1 mps 733 mmHg 64%
    23:00 +30°C° 0.7 mm 1 mps 734 mmHg 69%

    7 June, Sunday

    Time Temperature Precipitation Wind Pressure Humidity
    00:00 +29°C° 0.7 mm 1 mps 734 mmHg 74%
    01:00 +28°C° 0 mm 1 mps 733 mmHg 77%
    02:00 +28°C° 0 mm 2 mps 733 mmHg 80%
    03:00 +27°C° 0 mm 2 mps 733 mmHg 83%
    04:00 +27°C° 0 mm 2 mps 733 mmHg 84%
    05:00 +27°C° 0 mm 2 mps 734 mmHg 86%
    06:00 +27°C° 0 mm 2 mps 734 mmHg 87%
    07:00 +28°C° 0 mm 2 mps 735 mmHg 84%
    08:00 +28°C° 0 mm 3 mps 735 mmHg 80%
    09:00 +29°C° 0 mm 3 mps 736 mmHg 77%
    10:00 +31°C° 0 mm 3 mps 735 mmHg 70%
    11:00 +34°C° 0 mm 3 mps 735 mmHg 63%
    12:00 +35°C° 0 mm 3 mps 735 mmHg 56%
    13:00 +36°C° 0 mm 2 mps 734 mmHg 53%
    14:00 +37°C° 0 mm 2 mps 733 mmHg 49%
    15:00 +37°C° 0 mm 2 mps 733 mmHg 46%
    16:00 +36°C° 0 mm 1 mps 732 mmHg 49%
    17:00 +35°C° 0 mm 1 mps 732 mmHg 51%
    18:00 +34°C° 0 mm 1 mps 732 mmHg 54%
    19:00 +33°C° 0 mm 1 mps 732 mmHg 56%
    20:00 +32°C° 0 mm 1 mps 733 mmHg 58%
    21:00 +31°C° 0 mm 1 mps 733 mmHg 60%
    22:00 +31°C° 0.1 mm 1 mps 733 mmHg 63%
    23:00 +30°C° 0.1 mm 1 mps 733 mmHg 66%

    8 June, Monday

    Time Temperature Precipitation Wind Pressure Humidity
    00:00 +29°C° 0.1 mm 2 mps 733 mmHg 68%
    01:00 +29°C° 0.2 mm 2 mps 733 mmHg 72%
    02:00 +28°C° 0.2 mm 2 mps 733 mmHg 75%
    03:00 +27°C° 0.2 mm 2 mps 733 mmHg 79%
    04:00 +27°C° 0.4 mm 3 mps 733 mmHg 82%
    05:00 +27°C° 0.4 mm 3 mps 733 mmHg 85%
    06:00 +26°C° 0.4 mm 3 mps 734 mmHg 88%
    07:00 +27°C° 0 mm 3 mps 734 mmHg 84%
    08:00 +28°C° 0 mm 3 mps 735 mmHg 79%
    09:00 +29°C° 0 mm 3 mps 735 mmHg 75%
    10:00 +30°C° 0 mm 3 mps 735 mmHg 69%
    11:00 +33°C° 0 mm 3 mps 735 mmHg 63%
    12:00 +34°C° 0 mm 3 mps 734 mmHg 57%
    13:00 +35°C° 0.2 mm 2 mps 734 mmHg 55%
    14:00 +36°C° 0.2 mm 2 mps 733 mmHg 53%
    15:00 +35°C° 0.2 mm 1 mps 733 mmHg 51%
    16:00 +34°C° 1.6 mm 2 mps 732 mmHg 61%
    17:00 +30°C° 1.6 mm 2 mps 732 mmHg 72%
    18:00 +27°C° 1.6 mm 3 mps 731 mmHg 83%
    19:00 +27°C° 0 mm 2 mps 731 mmHg 86%
    20:00 +27°C° 0 mm 1 mps 732 mmHg 88%
    21:00 +24°C° 0 mm 0 mps 732 mmHg 90%
    22:00 +26°C° 0 mm 1 mps 732 mmHg 90%
    23:00 +25°C° 0 mm 1 mps 733 mmHg 90%

    9 June, Tuesday

    Time Temperature Precipitation Wind Pressure Humidity
    00:00 +25°C° 0 mm 2 mps 733 mmHg 89%
    01:00 +25°C° 0.1 mm 2 mps 733 mmHg 90%
    02:00 +25°C° 0.1 mm 1 mps 733 mmHg 90%
    03:00 +24°C° 0.1 mm 1 mps 733 mmHg 90%
    04:00 +24°C° 0 mm 1 mps 733 mmHg 89%
    05:00 +24°C° 0 mm 1 mps 733 mmHg 89%
    06:00 +24°C° 0 mm 1 mps 733 mmHg 88%
    07:00 +26°C° 0 mm 1 mps 733 mmHg 83%
    08:00 +27°C° 0 mm 2 mps 734 mmHg 78%
    09:00 +29°C° 0 mm 2 mps 734 mmHg 73%
    10:00 +30°C° 0 mm 3 mps 733 mmHg 66%
    11:00 +33°C° 0 mm 3 mps 733 mmHg 60%
    12:00 +35°C° 0 mm 3 mps 733 mmHg 53%
    13:00 +36°C° 0 mm 2 mps 732 mmHg 49%
    14:00 +36°C° 0 mm 1 mps 731 mmHg 44%
    15:00 +39°C° 0 mm 1 mps 731 mmHg 40%
    16:00 +36°C° 0 mm 1 mps 731 mmHg 43%
    17:00 +35°C° 0 mm 1 mps 731 mmHg 47%
    18:00 +34°C° 0 mm 1 mps 731 mmHg 50%
    19:00 +33°C° 0.1 mm 1 mps 732 mmHg 54%
    20:00 +32°C° 0.1 mm 1 mps 732 mmHg 57%
    21:00 +31°C° 0.1 mm 1 mps 733 mmHg 60%
    22:00 +30°C° 0.1 mm 1 mps 733 mmHg 66%
    23:00 +29°C° 0.1 mm 1 mps 733 mmHg 71%
    Show more